Stündliche Wetter Ceccano

Heute, 26 Oktober, Montag

Zeit Temperatur Niederschläge Wind Luftdruck Luftfeuchtigkeit
00:00 +13°C° 0 mm 1 m/S 743 mmHg 89%
01:00 +13°C° 0 mm 1 m/S 743 mmHg 89%
02:00 +13°C° 0 mm 1 m/S 743 mmHg 89%
03:00 +13°C° 0 mm 1 m/S 742 mmHg 88%
04:00 +13°C° 0 mm 1 m/S 742 mmHg 88%
05:00 +13°C° 0 mm 1 m/S 742 mmHg 89%
06:00 +13°C° 0 mm 1 m/S 742 mmHg 89%
07:00 +13°C° 0 mm 1 m/S 742 mmHg 89%
08:00 +15°C° 0 mm 1 m/S 742 mmHg 84%
09:00 +16°C° 0 mm 2 m/S 742 mmHg 80%
10:00 +18°C° 0 mm 2 m/S 742 mmHg 75%
11:00 +18°C° 0 mm 3 m/S 742 mmHg 74%
12:00 +18°C° 0 mm 3 m/S 741 mmHg 74%
13:00 +19°C° 0 mm 3 m/S 741 mmHg 74%
14:00 +18°C° 0.2 mm 3 m/S 741 mmHg 78%
15:00 +18°C° 0.2 mm 3 m/S 740 mmHg 81%
16:00 +18°C° 0.2 mm 3 m/S 740 mmHg 84%
17:00 +17°C° 0.1 mm 2 m/S 740 mmHg 87%
18:00 +16°C° 0.1 mm 2 m/S 740 mmHg 90%
19:00 +15°C° 0.1 mm 2 m/S 740 mmHg 93%
20:00 +15°C° 0.1 mm 2 m/S 740 mmHg 93%
21:00 +15°C° 0.1 mm 2 m/S 740 mmHg 93%
22:00 +15°C° 0.1 mm 2 m/S 740 mmHg 93%
23:00 +15°C° 0.4 mm 2 m/S 740 mmHg 94%

Morgen, 27 Oktober, Dienstag

Zeit Temperatur Niederschläge Wind Luftdruck Luftfeuchtigkeit
00:00 +15°C° 0.4 mm 2 m/S 740 mmHg 94%
01:00 +15°C° 0.4 mm 2 m/S 739 mmHg 94%
02:00 +15°C° 0.9 mm 2 m/S 739 mmHg 94%
03:00 +15°C° 0.9 mm 2 m/S 739 mmHg 94%
04:00 +15°C° 0.9 mm 2 m/S 739 mmHg 94%
05:00 +15°C° 0.5 mm 2 m/S 739 mmHg 94%
06:00 +15°C° 0.5 mm 1 m/S 739 mmHg 94%
07:00 +15°C° 0.5 mm 1 m/S 739 mmHg 93%
08:00 +15°C° 0.5 mm 2 m/S 739 mmHg 91%
09:00 +15°C° 0.5 mm 2 m/S 739 mmHg 88%
10:00 +16°C° 0.5 mm 2 m/S 740 mmHg 86%
11:00 +16°C° 0.2 mm 2 m/S 739 mmHg 81%
12:00 +16°C° 0.2 mm 2 m/S 739 mmHg 77%
13:00 +17°C° 0.2 mm 2 m/S 739 mmHg 73%
14:00 +16°C° 0 mm 2 m/S 739 mmHg 73%
15:00 +16°C° 0 mm 2 m/S 739 mmHg 73%
16:00 +16°C° 0 mm 2 m/S 739 mmHg 74%
17:00 +15°C° 0 mm 1 m/S 740 mmHg 77%
18:00 +14°C° 0 mm 1 m/S 740 mmHg 81%
19:00 +12°C° 0 mm 0 m/S 740 mmHg 85%
20:00 +12°C° 0 mm 1 m/S 740 mmHg 84%
21:00 +12°C° 0 mm 1 m/S 741 mmHg 84%
22:00 +12°C° 0 mm 1 m/S 741 mmHg 84%
23:00 +12°C° 0 mm 1 m/S 741 mmHg 84%

übermorgen, 28 Oktober, Mittwoch

Zeit Temperatur Niederschläge Wind Luftdruck Luftfeuchtigkeit
00:00 +12°C° 0 mm 1 m/S 741 mmHg 84%
01:00 +11°C° 0 mm 1 m/S 741 mmHg 84%
02:00 +11°C° 0 mm 1 m/S 741 mmHg 84%
03:00 +11°C° 0 mm 1 m/S 741 mmHg 84%
04:00 +11°C° 0 mm 1 m/S 741 mmHg 85%
05:00 +11°C° 0 mm 1 m/S 741 mmHg 84%
06:00 +11°C° 0 mm 1 m/S 741 mmHg 83%
07:00 +11°C° 0 mm 1 m/S 741 mmHg 82%
08:00 +13°C° 0 mm 1 m/S 742 mmHg 76%
09:00 +15°C° 0 mm 1 m/S 742 mmHg 69%
10:00 +16°C° 0 mm 0 m/S 743 mmHg 63%
11:00 +19°C° 0 mm 1 m/S 743 mmHg 60%
12:00 +19°C° 0 mm 1 m/S 743 mmHg 57%
13:00 +20°C° 0 mm 1 m/S 743 mmHg 55%
14:00 +20°C° 0 mm 1 m/S 743 mmHg 58%
15:00 +19°C° 0 mm 1 m/S 743 mmHg 60%
16:00 +19°C° 0 mm 1 m/S 743 mmHg 63%
17:00 +18°C° 0 mm 1 m/S 743 mmHg 67%
18:00 +15°C° 0 mm 1 m/S 743 mmHg 70%
19:00 +14°C° 0 mm 1 m/S 744 mmHg 74%
20:00 +13°C° 0 mm 1 m/S 744 mmHg 75%
21:00 +13°C° 0 mm 1 m/S 744 mmHg 76%
22:00 +13°C° 0 mm 1 m/S 745 mmHg 77%
23:00 +12°C° 0 mm 1 m/S 745 mmHg 77%

29 Oktober, Donnerstag

Zeit Temperatur Niederschläge Wind Luftdruck Luftfeuchtigkeit
00:00 +12°C° 0 mm 1 m/S 745 mmHg 77%
01:00 +12°C° 0 mm 1 m/S 745 mmHg 77%
02:00 +12°C° 0 mm 1 m/S 745 mmHg 76%
03:00 +11°C° 0 mm 1 m/S 745 mmHg 75%
04:00 +11°C° 0 mm 1 m/S 745 mmHg 73%
05:00 +11°C° 0 mm 1 m/S 745 mmHg 72%
06:00 +11°C° 0 mm 1 m/S 745 mmHg 71%
07:00 +11°C° 0 mm 1 m/S 745 mmHg 70%
08:00 +13°C° 0 mm 1 m/S 746 mmHg 65%
09:00 +15°C° 0 mm 1 m/S 746 mmHg 60%
10:00 +18°C° 0 mm 1 m/S 747 mmHg 55%
11:00 +19°C° 0 mm 1 m/S 747 mmHg 55%
12:00 +19°C° 0 mm 2 m/S 747 mmHg 54%
13:00 +19°C° 0 mm 2 m/S 747 mmHg 54%
14:00 +19°C° 0 mm 2 m/S 747 mmHg 58%
15:00 +19°C° 0 mm 2 m/S 747 mmHg 63%
16:00 +18°C° 0 mm 2 m/S 747 mmHg 67%
17:00 +18°C° 0 mm 1 m/S 747 mmHg 72%
18:00 +15°C° 0 mm 1 m/S 748 mmHg 76%
19:00 +14°C° 0 mm 1 m/S 748 mmHg 81%
20:00 +14°C° 0 mm 1 m/S 748 mmHg 81%
21:00 +13°C° 0 mm 1 m/S 749 mmHg 81%
22:00 +13°C° 0 mm 1 m/S 749 mmHg 81%
23:00 +13°C° 0 mm 1 m/S 749 mmHg 81%

30 Oktober, Freitag

Zeit Temperatur Niederschläge Wind Luftdruck Luftfeuchtigkeit
00:00 +13°C° 0 mm 1 m/S 749 mmHg 82%
01:00 +13°C° 0 mm 1 m/S 749 mmHg 82%
02:00 +12°C° 0 mm 1 m/S 749 mmHg 81%
03:00 +12°C° 0 mm 1 m/S 749 mmHg 81%
04:00 +12°C° 0 mm 1 m/S 749 mmHg 81%
05:00 +12°C° 0 mm 1 m/S 749 mmHg 81%
06:00 +12°C° 0 mm 1 m/S 749 mmHg 80%
07:00 +12°C° 0 mm 1 m/S 749 mmHg 80%
08:00 +14°C° 0 mm 1 m/S 749 mmHg 74%
09:00 +16°C° 0 mm 1 m/S 750 mmHg 68%
10:00 +19°C° 0 mm 1 m/S 750 mmHg 63%
11:00 +19°C° 0 mm 1 m/S 750 mmHg 62%
12:00 +20°C° 0 mm 1 m/S 750 mmHg 61%
13:00 +21°C° 0 mm 1 m/S 750 mmHg 60%
14:00 +20°C° 0 mm 1 m/S 750 mmHg 65%
15:00 +20°C° 0 mm 1 m/S 749 mmHg 69%
16:00 +19°C° 0 mm 1 m/S 749 mmHg 73%
17:00 +18°C° 0 mm 1 m/S 749 mmHg 78%
18:00 +15°C° 0 mm 0 m/S 749 mmHg 82%
19:00 +13°C° 0 mm 0 m/S 749 mmHg 86%
20:00 +13°C° 0 mm 0 m/S 749 mmHg 87%
21:00 +14°C° 0 mm 1 m/S 749 mmHg 87%
22:00 +14°C° 0 mm 1 m/S 750 mmHg 87%
23:00 +14°C° 0 mm 1 m/S 749 mmHg 87%

31 Oktober, Samstag

Zeit Temperatur Niederschläge Wind Luftdruck Luftfeuchtigkeit
00:00 +13°C° 0 mm 1 m/S 749 mmHg 87%
01:00 +13°C° 0 mm 1 m/S 749 mmHg 87%
02:00 +13°C° 0 mm 1 m/S 749 mmHg 87%
03:00 +13°C° 0 mm 1 m/S 749 mmHg 87%
04:00 +13°C° 0 mm 1 m/S 749 mmHg 87%
05:00 +13°C° 0 mm 1 m/S 748 mmHg 87%
06:00 +13°C° 0 mm 1 m/S 748 mmHg 87%
07:00 +12°C° 0 mm 1 m/S 748 mmHg 86%
Mehr zeigen